When you browse on this site, cookies collect data to enhance your experience and personalize the content and advertising you see.
Visit our Privacy Policy to learn more. By continuing to use the site, you agree to this use of cookies and data.
  • In Latvia
  • List of Countries
  • For 7 days
  • Water Temperature
  • Satellite Maps
  • Weather Map
  • Weather Widgets
  • user-avatar
    Login

    Hourly Weather Karczmarze

    Today, 15 December, Saturday

    Time Temperature Precipitation Wind Pressure Humidity
    00:00 -2°C° 0 mm 3 mps 750 mmHg 88%
    01:00 -2°C° 0 mm 3 mps 750 mmHg 87%
    02:00 -4°C° 0 mm 3 mps 750 mmHg 86%
    03:00 -4°C° 0 mm 3 mps 750 mmHg 85%
    04:00 -4°C° 0 mm 3 mps 750 mmHg 85%
    05:00 -4°C° 0 mm 3 mps 750 mmHg 85%
    06:00 -4°C° 0 mm 4 mps 750 mmHg 85%
    07:00 -5°C° 0 mm 4 mps 750 mmHg 86%
    08:00 -5°C° 0 mm 4 mps 750 mmHg 86%
    09:00 -5°C° 0 mm 5 mps 750 mmHg 83%
    10:00 -5°C° 0 mm 5 mps 750 mmHg 81%
    11:00 -4°C° 0 mm 6 mps 751 mmHg 78%
    12:00 -4°C° 0 mm 6 mps 750 mmHg 77%
    13:00 -4°C° 0 mm 6 mps 750 mmHg 76%
    14:00 -4°C° 0 mm 6 mps 750 mmHg 75%
    15:00 -4°C° 0 mm 6 mps 750 mmHg 77%
    16:00 -5°C° 0 mm 6 mps 750 mmHg 78%
    17:00 -5°C° 0 mm 6 mps 750 mmHg 80%
    18:00 -5°C° 0.2 mm 6 mps 749 mmHg 81%
    19:00 -6°C° 0.2 mm 7 mps 749 mmHg 83%
    20:00 -6°C° 0.2 mm 7 mps 749 mmHg 84%
    21:00 -6°C° 0.3 mm 7 mps 749 mmHg 85%
    22:00 -6°C° 0.3 mm 7 mps 749 mmHg 85%
    23:00 -6°C° 0.3 mm 7 mps 749 mmHg 86%

    Tomorrow, 16 December, Sunday

    Time Temperature Precipitation Wind Pressure Humidity
    00:00 -6°C° 0.2 mm 7 mps 748 mmHg 86%
    01:00 -5°C° 0.2 mm 6 mps 748 mmHg 85%
    02:00 -5°C° 0.2 mm 6 mps 748 mmHg 85%
    03:00 -5°C° 0.1 mm 6 mps 747 mmHg 85%
    04:00 -5°C° 0.1 mm 6 mps 747 mmHg 85%
    05:00 -5°C° 0.1 mm 6 mps 746 mmHg 85%
    06:00 -5°C° 0.2 mm 6 mps 746 mmHg 86%
    07:00 -5°C° 0.2 mm 6 mps 746 mmHg 87%
    08:00 -5°C° 0.2 mm 6 mps 746 mmHg 88%
    09:00 -4°C° 0.1 mm 6 mps 746 mmHg 87%
    10:00 -4°C° 0.1 mm 5 mps 746 mmHg 86%
    11:00 -2°C° 0.1 mm 5 mps 746 mmHg 86%
    12:00 -2°C° 0.1 mm 5 mps 746 mmHg 86%
    13:00 -2°C° 0.1 mm 5 mps 746 mmHg 86%
    14:00 -1°C° 0.1 mm 4 mps 745 mmHg 86%
    15:00 -2°C° 0.1 mm 4 mps 745 mmHg 88%
    16:00 -2°C° 0.1 mm 4 mps 745 mmHg 90%
    17:00 -1°C° 0.1 mm 3 mps 745 mmHg 92%
    18:00 -1°C° 0.2 mm 3 mps 746 mmHg 92%
    19:00 -1°C° 0.2 mm 3 mps 746 mmHg 93%
    20:00 -1°C° 0.2 mm 3 mps 746 mmHg 94%
    21:00 -1°C° 0.1 mm 3 mps 746 mmHg 94%
    22:00 -1°C° 0.1 mm 3 mps 746 mmHg 94%
    23:00 -1°C° 0.1 mm 3 mps 746 mmHg 94%

    Day after tomorrow, 17 December, Monday

    Time Temperature Precipitation Wind Pressure Humidity
    00:00 -2°C° 0 mm 3 mps 746 mmHg 94%
    01:00 -2°C° 0 mm 2 mps 746 mmHg 94%
    02:00 -2°C° 0 mm 2 mps 747 mmHg 94%
    03:00 -2°C° 0 mm 2 mps 746 mmHg 94%
    04:00 -3°C° 0 mm 2 mps 746 mmHg 93%
    05:00 -3°C° 0 mm 2 mps 746 mmHg 93%
    06:00 -1°C° 0 mm 1 mps 746 mmHg 93%
    07:00 -1°C° 0 mm 1 mps 746 mmHg 92%
    08:00 -1°C° 0 mm 1 mps 746 mmHg 92%
    09:00 -1°C° 0 mm 1 mps 747 mmHg 90%
    10:00 0°C° 0 mm 1 mps 747 mmHg 88%
    11:00 +1°C° 0 mm 1 mps 747 mmHg 86%
    12:00 +1°C° 0 mm 1 mps 747 mmHg 86%
    13:00 0°C° 0 mm 0 mps 747 mmHg 86%
    14:00 0°C° 0 mm 0 mps 747 mmHg 86%
    15:00 0°C° 0 mm 0 mps 748 mmHg 87%
    16:00 0°C° 0 mm 0 mps 748 mmHg 89%
    17:00 -1°C° 0 mm 0 mps 748 mmHg 90%
    18:00 -1°C° 0 mm 0 mps 749 mmHg 90%
    19:00 -1°C° 0 mm 0 mps 749 mmHg 90%
    20:00 -1°C° 0 mm 0 mps 749 mmHg 90%
    21:00 -1°C° 0 mm 0 mps 750 mmHg 90%
    22:00 0°C° 0 mm 1 mps 750 mmHg 90%
    23:00 0°C° 0 mm 1 mps 750 mmHg 90%

    18 December, Tuesday

    Time Temperature Precipitation Wind Pressure Humidity
    00:00 0°C° 0 mm 1 mps 750 mmHg 90%
    01:00 0°C° 0 mm 1 mps 751 mmHg 90%
    02:00 0°C° 0 mm 1 mps 751 mmHg 90%
    03:00 -1°C° 0 mm 1 mps 751 mmHg 90%
    04:00 -1°C° 0 mm 1 mps 751 mmHg 91%
    05:00 -1°C° 0 mm 1 mps 751 mmHg 91%
    06:00 -1°C° 0 mm 1 mps 751 mmHg 91%
    07:00 -1°C° 0 mm 1 mps 751 mmHg 91%
    08:00 -1°C° 0 mm 1 mps 752 mmHg 92%
    09:00 -1°C° 0 mm 1 mps 752 mmHg 90%
    10:00 0°C° 0 mm 1 mps 752 mmHg 89%
    11:00 0°C° 0 mm 1 mps 752 mmHg 88%
    12:00 0°C° 0 mm 1 mps 752 mmHg 87%
    13:00 +1°C° 0 mm 1 mps 752 mmHg 87%
    14:00 +1°C° 0 mm 1 mps 751 mmHg 87%
    15:00 0°C° 0 mm 1 mps 751 mmHg 88%
    16:00 0°C° 0 mm 1 mps 751 mmHg 90%
    17:00 0°C° 0 mm 1 mps 751 mmHg 92%
    18:00 0°C° 0 mm 1 mps 751 mmHg 92%
    19:00 0°C° 0 mm 1 mps 751 mmHg 92%
    20:00 0°C° 0 mm 1 mps 751 mmHg 92%
    21:00 0°C° 0 mm 1 mps 751 mmHg 92%
    22:00 -1°C° 0 mm 1 mps 751 mmHg 91%
    23:00 -1°C° 0 mm 1 mps 751 mmHg 91%

    19 December, Wednesday

    Time Temperature Precipitation Wind Pressure Humidity
    00:00 -1°C° 0 mm 1 mps 751 mmHg 91%
    01:00 -1°C° 0 mm 1 mps 751 mmHg 91%
    02:00 -1°C° 0 mm 1 mps 751 mmHg 91%
    03:00 -1°C° 0 mm 1 mps 750 mmHg 91%
    04:00 -1°C° 0 mm 1 mps 750 mmHg 92%
    05:00 -1°C° 0 mm 1 mps 750 mmHg 92%
    06:00 -1°C° 0 mm 1 mps 750 mmHg 92%
    07:00 -1°C° 0 mm 1 mps 750 mmHg 93%
    08:00 -1°C° 0 mm 1 mps 750 mmHg 93%
    09:00 -1°C° 0 mm 1 mps 750 mmHg 92%
    10:00 -3°C° 0 mm 2 mps 750 mmHg 91%
    11:00 -3°C° 0 mm 2 mps 750 mmHg 90%
    12:00 -3°C° 0 mm 2 mps 750 mmHg 88%
    13:00 -2°C° 0 mm 2 mps 750 mmHg 87%
    14:00 -2°C° 0 mm 2 mps 749 mmHg 86%
    15:00 -3°C° 0 mm 2 mps 749 mmHg 86%
    16:00 -3°C° 0 mm 2 mps 749 mmHg 87%
    17:00 -3°C° 0 mm 2 mps 749 mmHg 87%
    18:00 -3°C° 0 mm 2 mps 749 mmHg 88%
    19:00 -3°C° 0 mm 2 mps 750 mmHg 88%
    20:00 -4°C° 0 mm 2 mps 750 mmHg 88%
    21:00 -4°C° 0 mm 2 mps 750 mmHg 89%
    22:00 -4°C° 0 mm 2 mps 750 mmHg 89%
    23:00 -4°C° 0 mm 2 mps 750 mmHg 90%

    20 December, Thursday

    Time Temperature Precipitation Wind Pressure Humidity
    00:00 -4°C° 0 mm 2 mps 750 mmHg 90%
    01:00 -5°C° 0 mm 2 mps 750 mmHg 91%
    02:00 -5°C° 0 mm 2 mps 750 mmHg 91%
    03:00 -5°C° 0 mm 2 mps 750 mmHg 91%
    04:00 -5°C° 0 mm 2 mps 750 mmHg 91%
    05:00 -6°C° 0 mm 3 mps 750 mmHg 91%
    06:00 -6°C° 0 mm 3 mps 750 mmHg 91%
    07:00 -6°C° 0 mm 3 mps 750 mmHg 91%
    08:00 -7°C° 0 mm 3 mps 750 mmHg 91%
    09:00 -6°C° 0 mm 3 mps 751 mmHg 90%
    10:00 -6°C° 0 mm 3 mps 751 mmHg 89%
    11:00 -6°C° 0 mm 3 mps 751 mmHg 87%
    12:00 -6°C° 0 mm 3 mps 750 mmHg 87%
    13:00 -5°C° 0 mm 3 mps 750 mmHg 86%
    14:00 -5°C° 0 mm 3 mps 750 mmHg 85%
    15:00 -6°C° 0 mm 3 mps 750 mmHg 86%
    16:00 -7°C° 0 mm 4 mps 750 mmHg 87%
    17:00 -7°C° 0 mm 4 mps 750 mmHg 88%
    18:00 -7°C° 0 mm 4 mps 750 mmHg 88%
    19:00 -8°C° 0 mm 4 mps 750 mmHg 89%
    20:00 -8°C° 0 mm 4 mps 750 mmHg 89%
    21:00 -8°C° 0 mm 4 mps 750 mmHg 89%
    22:00 -8°C° 0 mm 4 mps 750 mmHg 89%
    23:00 -8°C° 0 mm 4 mps 750 mmHg 89%
    Show more